Location: Izdebno
(52.6670°N, 16.2170°E)
Time: 04:09:52
(UTC+02:00)

Transit 2A - Pass Details

Date: 27 February 2024
Orbit: 596 x 956 km, 66.7° (Epoch: 21 April)

Event Time Altitude Azimuth Distance (km) Brightness Sun altitude
Rises 04:52:54 0° 311° (NW) 3,017 - -18.1°
Reaches altitude 10° 04:55:38 10° 295° (WNW) 2,156 - -17.7°
Maximum altitude 04:59:11 20° 248° (WSW) 1,640 - -17.2°
Exits shadow 05:01:44 15° 213° (SSW) 1,990 7.8 -16.8°
Drops below altitude 10° 05:02:57 10° 202° (SSW) 2,314 8.2 -16.6°
Sets 05:06:01 0° 187° (S) 3,310 9.2 -16.2°
